Погода в Руйиене

Погода в Руйиене : погода сейчас, прогноз погоды и архив. Всё, что Вы хотите узнать о погоде в Руйиене!

Поиск расширенной информации на нашем сайте:

Другие новости

Новости СМИ2

Главная страница сайта

Новости сайта

03.07.2017

Напоминаем, что на нашем специализированном сайте Метеоцентр.Азия вы можете получить высокодетализированные автоматические прогнозы погоды по пунктам России, СНГ и мира в авиационном формате (включающие направление и скорость ветра, видимость, явления погоды, количество и форму облачности, нижнюю и верхнюю границу облачности).


Погода в Руйиене - сегодня

Время (UTC), дата Ветер
(°,м/с) 
Видим.   Явления Облачность Т
(°С)
Тd
(°С)
f(%) Тe
(°С)
Pmin
(гПа)
dP
(гПа)
Po
(мм)
O2
(г/м3)
Тmin Tmax R s Состояние
почвы
03 16.01.18 150 (ЮВ) 5-8  н/о    н/о 
-10.1 -12.9 80 -15  1017.8  -2.6  757  318           
06 16.01.18 130 (ЮВ) 6-8  н/о    н/о 
-11.2 -14.1 79 -17  1015.1  -2.7  755  318           
09 16.01.18 130 (ЮВ) 6-10  н/о    н/о 
-9.2 -14.1 68 -14  1013.3  -1.7  753  315           
12 16.01.18 140 (ЮВ) 7-10  н/о    н/о 
-6.4 -13.9 55 -12  1010.2  -3  751  311           
15 16.01.18 130 (ЮВ) 7-10  н/о    н/о 
-7.4 -15.4 53 -13  1008  -2.3  749  312           
18 16.01.18 130 (ЮВ) 6-10  н/о    н/о 
-8.7 -15.5 58 -14  1006.3  -1.8  748  313           
21 16.01.18 120 (ЮВ) 6-11  н/о    н/о 
-10.1 -15.6 64 -15  1004.4  -1.9  747  314           
00 17.01.18 120 (ЮВ) 7-12  н/о    н/о 
-10.1 -13.7 75 -16  1002  -2.4  745  313           
03 17.01.18 120 (ЮВ) 7-11  н/о    н/о 
-10 -14 73 -16  999.8  -2.2  743  312           
09 17.01.18 110 (В) 6-9  н/о    н/о 
-8.8 -11.1 83 -14  997.3  -0.9  742  310           
12 17.01.18 120 (ЮВ) 5-7  н/о    н/о 
-7.4 -10.6 78 -12  996  -1.3  741  308           
15 17.01.18 110 (В) 4-6  н/о    н/о 
-7 -8.9 86 -11  995.9  740  307           
18 17.01.18 080 (В) 3-4  н/о    н/о 
-6.6 -7.9 90 -9  995.7  -0.2  740  306           
21 17.01.18 090 (В) 3-5  н/о    н/о 
-5.4 -6.5 92 -8  995.6  740  305           
00 18.01.18 080 (В) 4-4  н/о    н/о 
-5.3 -6.4 92 -9  995.7  0.1  740  305           
03 18.01.18 080 (В) 2-3  н/о    н/о 
-5.2 -6 94 -7  995.7  740  305           
09 18.01.18 190 (Ю) 1-1  н/о    н/о 
-5.6 -6.5 93 -5  997.1  741  306           
12 18.01.18 170 (Ю) 2-3  н/о    н/о 
-4.7 -6.2 89 -6  997.5  0.4  742  305           
15 18.01.18 130 (ЮВ) 2-3  н/о    н/о 
-4.7 -5.8 92 -6  997.9  0.5  742  305           
18 18.01.18 150 (ЮВ) 2-2  н/о    н/о 
-3.9 -4.7 94 -5  998.6  0.7  743  304           
21 18.01.18 120 (ЮВ) 2-3  н/о    н/о 
-3.2 -3.8 96 -4  999.5  0.9  743  303           
00 19.01.18 130 (ЮВ) 2-4  н/о    н/о 
-2.1 -2.7 96 -3  999.8  0.3  743  302           
03 19.01.18 120 (ЮВ) 3-4  н/о    н/о 
-2.1 -2.7 96 -4  1000.8  744  302           
09 19.01.18 100 (В) 2-4  н/о    н/о 
-1.8 -3.1 91 -3  1003.4  1.6  746  303           
12 19.01.18 090 (В) 4-6  н/о    н/о 
-1.5 -4 83 -4  1004.1  0.6  747  303           
Время (UTC), дата Ветер
(°,м/с) 
Видим.   Явления Облачность Т
(°С)
Тd
(°С)
f(%) Тe
(°С)
Pmin
(гПа)
dP
(гПа)
Po
(мм)
O2
(г/м3)
Тmin Tmax R s Состояние
почвы

Для получения пояснительной информации подведите курсор к названию столбца.

ПОГОДА в Руйиене - архив

Всё, что Вы хотите узнать о погоде в Руйиене - удобно и подробно!

Выберите нужную дату (начиная с 1 января 2015* года) и нажмите кнопку "Найти".
Будут отображены архивные сводки погоды по пункту Руйиена, начиная с указанной даты.


Отображать данные в формате CSV (для использования в таблицах Excel)


Внимание! Наш архив погоды предназначен исключительно для личного некоммерческого использования в познавательных целях. Если Вам необходимы официальные справки о состоянии погоды (для производственных, юридических, коммерческих и т.п. целей), обращайтесь в органы Росгидромета.

*Примечание: данная дата относится к архиву по метеостанциям СССР (Россия, СНГ, Балтия).
Архив по метеостанциям Зарубежной Европы и Азии (кроме Китая) хранится 10 дней, по другим регионам земного шара (Китай, Африка, Америка, Австралия, Океания) - 1 день.

Руйиена - район местоположения метеостанции


Название, широта, долгота, высота метеостанции:
Руйиена 57.9°ш. 25.4°д. 12 м над ур. моря [Латвия]

Дополнительная информация

В oтличие oт бoльшинства пoгoдных сайтoв мы публикуем пoдрoбную метеoинфoрмацию в детальнoм прoфессиoнальнoм фoрмате.

Характеристики температуры и влажнoсти вoздуха измеряются на высoте 2 м в тени вдали oт зданий и деревьев.
Скoрoсть ветра измеряется на высoте 10 м (на урoвне рoста челoвека скoрoсть ветра ниже в 1.5-2 раза). Если метеoстанция нахoдится в гoрoде или в лесу, тo скoрoсть ветра занижена на 2-4 м/с пo сравнению с oткрытым местoм. Скoрoсть ветра над акватoриями крупных рек и oзёр, а также на вершинах хoлмoв на 2-5 м/с выше, чем в oбычных услoвиях.
Атмoсфернoе давление в разных тoчках местнoсти мoжет значительнo oтличаться oт давления на метеoстанции, в зависимoсти oт услoвий рельефа (при пoдъёме на 10 м давление пoнижается примернo на 1 мм рт.ст.).